User: anonymous   Login
Location: Ward Pound Ridge Reservation
(41.2500°N, 73.6000°W)
Time: 18:22:47
(UTC-05:00)
Language:

XW-2D - Orbit

View from above orbital plane
View from above orbital plane
View from above satellite
View from above satellite

Ground track
Ground track

The orbit data is extracted from the following two-line orbital elements,

1 40907U 15049J   17322.53501942  .00001293  00000-0  72617-4 0  9995
2 40907  97.4543 324.7202 0015658  42.9051 317.3399 15.14994272119606
Epoch (UTC): 18 November 2017 12:50:25
Eccentricity: 0.0015658
inclination: 97.4543°
perigee height: 510 km
apogee height: 532 km
right ascension of ascending node: 324.7202°
argument of perigee: 42.9051°
revolutions per day: 15.14994272
mean anomaly at epoch: 317.3399°
orbit number at epoch: 11960

The dashed part of the orbit path shows where the satellite is in the earth's shadow,  

DLR